Location: Blankensee
(53.5126°N, 14.3055°E)
Time: 16:13:52
(UTC+00:00)

Cosmos 1607 - Pass Details

Date: 08 August 2020
Orbit: 911 x 991 km, 65.0° (Epoch: 19 September)

Event Time Altitude Azimuth Distance (km) Brightness Sun altitude
Rises 00:46:52 0° 315° (NW) 3,684 7.3 -17.3°
Reaches altitude 10° 00:49:26 10° 314° (NW) 2,742 6.6 -17.1°
Maximum altitude 00:55:52 73° 231° (SW) 1,033 3.9 -16.7°
Drops below altitude 10° 01:02:18 10° 148° (SSE) 2,749 6.1 -16.3°
Sets 01:04:53 0° 147° (SSE) 3,694 6.8 -16.1°
